Location: Newark
(9.4667°S, 159.8167°E)
Time: 09:52:35
(UTC+00:00)

S-56A Canister/Altair - Visible Passes

Search period start: 13 November 2019 00:00
Search period end: 23 November 2019 00:00
Orbit: 634 x 2498 km, 38.9° (Epoch: 12 November)

Date Brightness Start Highest point End Pass type
(mag) Time Alt. Az. Time Alt. Az. Time Alt. Az.
13 Nov 10.6 15:25:27 12° ENE 15:25:27 12° ENE 15:26:37 10° E visible
13 Nov 8.5 17:22:54 34° NW 17:26:25 86° SW 17:36:45 10° SE visible
14 Nov 8.2 16:52:11 60° NNW 16:53:35 81° NE 17:03:07 10° SE visible
15 Nov 8.4 16:21:25 63° ENE 16:21:25 63° ENE 16:29:29 10° SE visible
15 Nov 9.9 18:19:38 10° W 18:26:15 32° SSW 18:35:38 10° SSE visible
16 Nov 9.4 15:50:38 36° E 15:50:38 36° E 15:55:53 10° ESE visible
16 Nov 9.6 17:48:04 16° W 17:53:04 34° SSW 18:02:05 10° SSE visible
17 Nov 10.2 15:19:48 20° ESE 15:19:48 20° ESE 15:22:17 10° ESE visible
17 Nov 9.1 17:17:14 28° WSW 17:20:00 38° SSW 17:28:37 10° SE visible
18 Nov 8.7 16:46:22 41° SW 16:47:03 42° SSW 16:55:13 10° SE visible
19 Nov 8.9 16:15:27 43° S 16:15:27 43° S 16:21:54 10° SE visible
19 Nov 10.4 18:16:20 10° SW 18:20:53 16° SSW 18:26:27 10° SSE visible
20 Nov 9.6 15:44:31 31° SSE 15:44:31 31° SSE 15:48:40 10° SE visible
20 Nov 10.2 17:43:17 10° SW 17:47:36 16° SSW 17:52:55 10° SSE visible
21 Nov 10.3 15:13:33 18° SE 15:13:33 18° SE 15:15:29 10° SE visible
21 Nov 10.0 17:10:58 12° SW 17:14:24 17° SSW 17:19:31 10° SSE visible
22 Nov 9.9 16:39:58 17° SW 16:41:19 18° SSW 16:46:17 10° SSE visible
